THOR AGENA B DEB, 1948

Orbit data source: Space-Track

THOR AGENA B DEB, 1948 is space debris in LEO originally from a launch on Mon, 29 Nov 1965 UTC launched from the Air Force Western Test Range (AFWTR). Debris objects in space refer to the collection of defunct objects orbiting the Earth. Examples of debris include non-operational satellites, rocket bodies, and fragments generated from explosions, collisions, or faulty payload assembly.

Loading next visibility...
Identifier
1948, 1965-098F
Orbit
LEO
Country
Flag of USUS
Related business
Manufacturer
Unknown
Mission
Spacecraft
Bus & Motor
Unknown
Mass
~1 kg wet, ~1 kg dry
Launch date (UTC)
1965-11-29 (60 years ago)
Launch vehicle
Unknown
Launch site
Air Force Western Test Range (AFWTR)
Object type
Payload
Rocket body
Debris
Shape & HBR
Unknown
Radar Cross Section
Medium (>0.1 m² and <1 m²)

Expand to show TLE details & history
Last TLE update: 20 hours ago

TLE from 20 hours ago
0 THOR AGENA B DEB
1  1948U 65098F   25312.51798860  .00008970  00000-0  16530-2 0  9998
2  1948  79.8449 147.5815 0759996  88.2572 280.5379 13.58694316779174
Epoch: 2025-11-08T12:25Z
TLE epoch observation values (Epoch: 2025-11-08T12:25:54.215Z)
Latitude
-0.00002°
Longitude
-86.84085°
Altitude
982.252 km
Speed
7.391 km/s
True Right ascension
09h 50m 19s
True Declination
0° 00' 00"
Sunlit
Object was in daylight at epoch
Visualization orbit readout
Latitude
Unknown
Longitude
Unknown
Altitude
Unknown
Speed
Unknown
Apparent Right ascension
Unknown
Apparent Declination
Unknown
Sunlit
N/A
Visualization observer readout
Local Sidereal Time
05:09:39
Azimuth
Unknown
Elevation
Unknown
Doppler factor
Unknown
Orbital elements
Apogee altitude
1,601.334 km
Perigee altitude
474.128 km
Semi-major axis
7,415.868 km
Eccentricity
0.076
Inclination
79.8449°
RAAN
147.5815°
Arg. of periapsis
88.2572°
True anomaly
271.85798°
Mean anomaly
280.5379°
Eccentric anomaly
276.20899°
Mean motion
3.3986 °/min
Orbital period
105.93 mins
BSTAR
0.001653
Loading maneuver chart data...
Computing Atmospheric mass density...
Loading historical data...
Loading historical data...
Loading historical data...
Loading historical data...
Loading historical data...
Loading historical data...
Loading historical data...

Documentation

Showing up to 5 results
|